Miscellaneous Local Product
Issued by NWS Hastings, NE

Home | Current Version | Previous Version | Graphics & Text | Print | Product List | Glossary On
Versions: 1 2 3 4 5 6 7 8 9 10 11 12 13 14 15 16 17 18 19 20 21 22 23 24 25 26 27 28 29 30 31 32 33 34 35 36 37 38 39 40 41 42 43 44 45 46 47 48 49 50
000
AXUS43 KGID 282202
MISGRI

GID CWA HOURLY WEATHER ROUNDUP
NATIONAL WEATHER SERVICE HASTINGS NE
500 PM CDT SAT MAR 28 2015

NOTE: "FAIR" INDICATES FEW OR NO CLOUDS BELOW 12,000 FEET WITH NO
SIGNIFICANT WEATHER AND/OR OBSTRUCTIONS TO VISIBILITY.

...SOUTH CENTRAL NEBRASKA...

CITY           SKY/WX    TMP DP  RH WIND       PRES   REMARKS
GRAND ISLAND   SUNNY     62  34  35 SE16      29.97F
HASTINGS       SUNNY     63  35  35 SE16      29.95F
KEARNEY        SUNNY     66  34  30 SE15G22   29.94F
ORD            SUNNY     63  32  31 S14G28    29.91F
YORK           SUNNY     57  34  41 S14       30.01S
AURORA         SUNNY     60  34  37 S17       29.98F
LEXINGTON      SUNNY     71  35  26 S16G22    29.91F
HOLDREGE       SUNNY     68  33  27 S14G24    29.93F
HEBRON         SUNNY     61  30  30 SE13      30.01F

...NEBRASKA PANHANDLE...

CITY           SKY/WX    TMP DP  RH WIND       PRES   REMARKS
CHADRON        SUNNY     83  26  12 W25G33    29.70F
ALLIANCE       SUNNY     81  34  18 W17G26    29.78F
SCOTTSBLUFF    SUNNY     82  27  13 W18G29    29.78F
SIDNEY         SUNNY     79  27  14 SW16G30   29.84F

...WESTERN AND NORTH CENTRAL NEBRASKA...

CITY           SKY/WX    TMP DP  RH WIND       PRES   REMARKS
VALENTINE      SUNNY     78  32  18 S23G30    29.74F
AINSWORTH      SUNNY     71  35  26 S21G29    29.82F
ONEILL         SUNNY     61  32  33 S20G26    29.91F
BROKEN BOW     SUNNY     70  36  28 S17       29.88F
IMPERIAL         N/A     81  29  15 S13       29.83F
NORTH PLATTE   SUNNY     77  34  21 S18G28    29.84F
MCCOOK         SUNNY     81  33  17 S15G22    29.87F

...EASTERN NEBRASKA...

CITY           SKY/WX    TMP DP  RH WIND       PRES   REMARKS
NORFOLK        SUNNY     56  33  42 S16G24    29.97F
SO SIOUX CITY  SUNNY     55  26  32 SE16G24   30.02F
TEKAMAH        SUNNY     56  28  34 SE29G43   30.04F
COLUMBUS       SUNNY     55  34  44 S18       30.02F
ALBION         SUNNY     58  31  36 S18       29.97F
OMAHA EPPLEY   SUNNY     54  29  38 S15G23    30.06F
OFFUTT AFB     SUNNY     54  30  40 SE17      30.06F
MILLARD        SUNNY     54  31  42 SE16G22   30.06F
LINCOLN        SUNNY     57  33  40 SE14G23   30.05F
NEBRASKA CITY  SUNNY     53  28  37 S13G21    30.08F
BEATRICE       SUNNY     56  33  42 SE13G18   30.04F
FALLS CITY     SUNNY     54  32  43 SE15G21   30.08F

...NORTHERN KANSAS...

CITY           SKY/WX    TMP DP  RH WIND       PRES   REMARKS
GOODLAND       SUNNY     81  22  11 SW14G24   29.90F
HILL CITY      SUNNY     75  37  25 SE14      29.93F
NORTON         CLEAR     73  28  19 SE10      29.92F
PHILLIPSBURG   SUNNY     73  36  25 SE15G22   29.94F
SMITH CENTER   SUNNY     66  36  32 SE16      29.96F
BELOIT         SUNNY     68  34  28 SE12G20   29.97F
HAYS           SUNNY     73  39  29 SE15      29.95F
RUSSELL        SUNNY     72  38  29 SE13      29.94F
CONCORDIA      SUNNY     64  34  32 SE13G22   29.99F
SALINA         SUNNY     68  37  32 E13       29.99F
TOPEKA         SUNNY     56  33  42 SE9G20    30.09S



USA.gov is the U.S. government's official web portal to all federal, state and local government web resources and services.